Вернуться в каталог

ATLAS 5 CENTAUR DEB

LostHEO
NORAD 44653·DEBRIS·🇺🇸 United States

Запущен Oct 17, 2018 с Cape Canaveral Space Force Station

Loading…

Ближайшие Пролёты (ближайшие 24 часа)

TLE

УстаревшееSource: Space-Track

Эпоха: Feb 1, 2025, 13:46 UTC

1 44653U 18079P   25032.57379200 -.00000103  00000-0  00000-0 0  9997
2 44653  13.1735  37.9101 4610770 315.5402  15.4108  2.00641333 40218

Отслеживайте ATLAS 5 CENTAUR DEB в реальном времени с AllMySat

Download on the App Store